TimeCDT,TemperatureF,Dew PointF,Humidity,Sea Level PressureIn,VisibilityMPH,Wind Direction,Wind SpeedMPH,Gust SpeedMPH,PrecipitationIn,Events,Conditions,WindDirDegrees,DateUTC
12:15 AM,36.7,22.5,56,30.23,10.0,SW,3.5,-,N/A,,Clear,220,2013-04-04 05:15:00
12:35 AM,36.0,22.8,59,30.23,10.0,SSW,6.9,-,N/A,,Clear,210,2013-04-04 05:35:00
12:55 AM,36.3,23.0,59,30.23,10.0,SSW,4.6,-,N/A,,Clear,200,2013-04-04 05:55:00
1:15 AM,36.5,22.8,58,30.23,10.0,SW,3.5,-,N/A,,Clear,220,2013-04-04 06:15:00
1:35 AM,33.1,23.0,66,30.22,10.0,SW,5.8,-,N/A,,Clear,230,2013-04-04 06:35:00
1:55 AM,33.1,23.5,68,30.21,10.0,WSW,8.1,-,N/A,,Clear,240,2013-04-04 06:55:00
2:15 AM,32.7,23.2,68,30.20,10.0,WSW,8.1,-,N/A,,Clear,240,2013-04-04 07:15:00
2:35 AM,32.0,23.0,69,30.20,10.0,WSW,6.9,-,N/A,,Clear,240,2013-04-04 07:35:00
2:55 AM,32.0,23.2,70,30.19,10.0,SW,6.9,-,N/A,,Clear,230,2013-04-04 07:55:00
3:15 AM,31.5,22.6,70,30.19,10.0,WSW,8.1,-,N/A,,Clear,240,2013-04-04 08:15:00
3:35 AM,31.1,22.6,71,30.18,10.0,WSW,8.1,-,N/A,,Clear,240,2013-04-04 08:35:00
3:55 AM,31.6,23.9,73,30.19,10.0,WSW,10.4,-,N/A,,Clear,250,2013-04-04 08:55:00
4:15 AM,32.0,23.9,72,30.19,10.0,West,9.2,-,N/A,,Clear,260,2013-04-04 09:15:00
4:35 AM,31.1,23.5,74,30.19,10.0,West,9.2,-,N/A,,Clear,260,2013-04-04 09:35:00
4:55 AM,32.0,24.4,74,30.19,10.0,West,9.2,-,N/A,,Clear,260,2013-04-04 09:55:00
5:15 AM,31.6,23.9,73,30.19,10.0,West,8.1,-,N/A,,Clear,270,2013-04-04 10:15:00
5:35 AM,31.1,24.1,75,30.19,10.0,West,9.2,-,N/A,,Clear,270,2013-04-04 10:35:00
5:55 AM,31.5,24.8,76,30.19,10.0,West,9.2,-,N/A,,Clear,270,2013-04-04 10:55:00
6:15 AM,30.7,24.6,78,30.18,10.0,West,8.1,-,N/A,,Clear,270,2013-04-04 11:15:00
6:35 AM,30.0,24.6,80,30.18,10.0,West,8.1,-,N/A,,Clear,260,2013-04-04 11:35:00
6:55 AM,29.3,24.4,82,30.18,10.0,WSW,8.1,-,N/A,,Clear,250,2013-04-04 11:55:00
7:15 AM,29.8,24.8,81,30.17,10.0,WSW,8.1,-,N/A,,Clear,250,2013-04-04 12:15:00
7:35 AM,31.1,26.1,82,30.18,10.0,WSW,8.1,-,N/A,,Clear,250,2013-04-04 12:35:00
7:55 AM,32.0,27.1,82,30.17,10.0,WSW,6.9,-,N/A,,Clear,240,2013-04-04 12:55:00
8:15 AM,34.0,28.4,80,30.17,10.0,WSW,5.8,-,N/A,,Clear,240,2013-04-04 13:15:00
8:35 AM,36.5,29.8,77,30.18,10.0,WSW,6.9,-,N/A,,Clear,250,2013-04-04 13:35:00
8:55 AM,39.6,31.3,72,30.18,10.0,West,8.1,-,N/A,,Clear,270,2013-04-04 13:55:00
9:15 AM,41.9,30.9,65,30.18,10.0,West,9.2,-,N/A,,Clear,260,2013-04-04 14:15:00
9:35 AM,43.9,31.3,61,30.17,10.0,West,9.2,-,N/A,,Clear,260,2013-04-04 14:35:00
9:55 AM,45.7,30.4,55,30.17,10.0,West,10.4,-,N/A,,Clear,270,2013-04-04 14:55:00
10:15 AM,47.1,29.8,51,30.16,10.0,West,10.4,-,N/A,,Clear,270,2013-04-04 15:15:00
10:35 AM,48.2,28.9,47,30.16,10.0,WSW,10.4,-,N/A,,Clear,250,2013-04-04 15:35:00
10:55 AM,50.0,30.6,47,30.15,10.0,WSW,10.4,-,N/A,,Clear,250,2013-04-04 15:55:00
11:35 AM,52.7,31.3,44,30.15,10.0,West,11.5,16.1,N/A,,Clear,260,2013-04-04 16:35:00
11:55 AM,53.8,32.0,44,30.13,10.0,WSW,9.2,16.1,N/A,,Clear,240,2013-04-04 16:55:00
12:15 PM,55.0,32.0,42,30.13,10.0,WSW,8.1,-,N/A,,Clear,250,2013-04-04 17:15:00
12:35 PM,55.8,32.0,41,30.13,10.0,WSW,9.2,-,N/A,,Clear,250,2013-04-04 17:35:00
12:55 PM,57.2,32.0,38,30.12,10.0,WSW,10.4,16.1,N/A,,Clear,240,2013-04-04 17:55:00
1:15 PM,58.1,30.7,35,30.12,10.0,WSW,6.9,16.1,N/A,,Clear,250,2013-04-04 18:15:00
1:35 PM,58.8,31.5,36,30.11,10.0,West,11.5,17.3,N/A,,Clear,260,2013-04-04 18:35:00
2:15 PM,60.6,32.2,34,30.09,10.0,WNW,10.4,-,N/A,,Clear,290,2013-04-04 19:15:00
2:35 PM,62.1,32.4,33,30.09,10.0,West,9.2,-,N/A,,Clear,280,2013-04-04 19:35:00
2:55 PM,62.1,32.0,32,30.08,10.0,WNW,4.6,-,N/A,,Clear,300,2013-04-04 19:55:00
3:15 PM,63.1,32.0,31,30.07,10.0,NW,5.8,9.2,N/A,,Clear,310,2013-04-04 20:15:00
3:35 PM,63.5,32.2,31,30.06,10.0,Calm,Calm,-,N/A,,Clear,0,2013-04-04 20:35:00
3:55 PM,63.7,32.4,31,30.06,10.0,NW,4.6,-,N/A,,Clear,310,2013-04-04 20:55:00
4:15 PM,64.6,33.3,31,30.05,10.0,NW,10.4,-,N/A,,Clear,310,2013-04-04 21:15:00
4:35 PM,63.9,32.9,31,30.04,10.0,NW,4.6,-,N/A,,Clear,320,2013-04-04 21:35:00
4:55 PM,64.6,33.1,31,30.04,10.0,WNW,5.8,-,N/A,,Clear,300,2013-04-04 21:55:00
5:15 PM,65.1,33.3,31,30.04,10.0,NW,5.8,-,N/A,,Clear,310,2013-04-04 22:15:00
5:35 PM,64.8,33.3,31,30.04,10.0,North,6.9,-,N/A,,Clear,350,2013-04-04 22:35:00
5:55 PM,64.4,33.3,31,30.04,10.0,NW,6.9,-,N/A,,Clear,320,2013-04-04 22:55:00
6:15 PM,63.9,33.3,32,30.04,10.0,West,4.6,-,N/A,,Clear,280,2013-04-04 23:15:00
6:35 PM,63.9,33.4,32,30.04,10.0,NNW,5.8,-,N/A,,Clear,330,2013-04-04 23:35:00
6:55 PM,62.8,33.1,33,30.04,10.0,North,5.8,-,N/A,,Clear,360,2013-04-04 23:55:00
7:15 PM,61.0,33.3,35,30.05,10.0,North,5.8,-,N/A,,Clear,360,2013-04-05 00:15:00
7:35 PM,59.0,33.3,38,30.05,10.0,North,5.8,-,N/A,,Clear,10,2013-04-05 00:35:00
7:55 PM,56.3,32.9,41,30.05,10.0,North,4.6,-,N/A,,Clear,10,2013-04-05 00:55:00
8:15 PM,54.9,33.4,44,30.06,10.0,North,5.8,-,N/A,,Clear,360,2013-04-05 01:15:00
8:35 PM,54.7,33.4,45,30.07,10.0,North,5.8,-,N/A,,Clear,360,2013-04-05 01:35:00
8:55 PM,53.6,33.6,47,30.07,10.0,North,5.8,-,N/A,,Clear,10,2013-04-05 01:55:00
9:15 PM,51.8,32.9,49,30.08,10.0,NNE,6.9,-,N/A,,Clear,20,2013-04-05 02:15:00
9:35 PM,50.9,33.3,51,30.09,10.0,NNE,5.8,-,N/A,,Clear,30,2013-04-05 02:35:00
9:55 PM,50.5,33.3,52,30.09,10.0,NNE,5.8,-,N/A,,Clear,30,2013-04-05 02:55:00
10:15 PM,48.6,33.3,56,30.10,10.0,NE,8.1,-,N/A,,Clear,40,2013-04-05 03:15:00
10:35 PM,48.0,32.2,54,30.11,10.0,NE,4.6,-,N/A,,Clear,40,2013-04-05 03:35:00
10:55 PM,46.8,31.6,56,30.11,10.0,NE,5.8,-,N/A,,Clear,40,2013-04-05 03:55:00
11:15 PM,45.5,30.2,55,30.11,10.0,NE,5.8,-,N/A,,Clear,50,2013-04-05 04:15:00
11:35 PM,45.5,29.8,54,30.11,10.0,NE,5.8,-,N/A,,Clear,40,2013-04-05 04:35:00
11:55 PM,45.0,29.3,54,30.11,10.0,NE,5.8,-,N/A,,Scattered Clouds,40,2013-04-05 04:55:00